User: anonymous   Login
Location: Detroit
(42.3310°N, 83.0460°W)
Time: 03:54:23
(UTC-05:00)
Language:

Cosmos 791 Rocket - Orbit

View from above orbital plane
View from above orbital plane
View from above satellite
View from above satellite

Ground track
Ground track

The orbit data is extracted from the following two-line orbital elements,

1 08615U 76008J   24063.82221833  .00000037  00000-0  47487-3 0  9998
2 08615  74.0560 191.6125 0132753  65.9965  47.9053 12.20890297143556
Epoch (UTC): 03 March 2024 19:43:59
Eccentricity: 0.0132753
inclination: 74.0560°
perigee height: 1483 km
apogee height: 1694 km
right ascension of ascending node: 191.6125°
argument of perigee: 65.9965°
revolutions per day: 12.20890297
mean anomaly at epoch: 47.9053°
orbit number at epoch: 14355

The dashed part of the orbit path shows where the satellite is in the earth's shadow,  

DLR